Regional Weather Roundup
Issued by NWS

Home | Current Version | Previous Version | Graphics & Text | Print | Product List | Glossary On
Versions: 1 2 3 4 5 6 7 8 9 10 11 12 13 14 15 16 17 18 19 20 21 22 23 24 25 26 27 28 29 30 31 32 33 34 35 36 37 38 39 40 41 42 43 44 45 46 47 48 49 50
000
ASUS45 KTFX 070910
RWRMT
MONTANA REGIONAL WEATHER ROUNDUP
NATIONAL WEATHER SERVICE GREAT FALLS MT
300 AM MDT TUE JUL 07 2015

NOTE: "FAIR" INDICATES FEW OR NO CLOUDS BELOW 12000 FEET WITH NO
SIGNIFICANT WEATHER AND/OR OBSTRUCTIONS TO VISIBILITY.

MTZ001>007-043-071000-
WEST OF THE DIVIDE

CITY           SKY/WX    TMP DP  RH WIND       PRES   REMARKS
KALISPELL      MOSUNNY   51  44  77 NW3       30.02S
MISSOULA       PTCLDY    62  36  37 SE7       30.06S
BUTTE          CLEAR     51  34  52 S6        30.18F
MULLAN PASS    CLOUDY    64  37  36 SE5       30.18S
DEER LODGE       N/A     48  34  57 CALM      30.17S
EUREKA           N/A     72  43  35 SE7       30.02R
HAMILTON         N/A     55  43  62 SW5       30.07S
LIBBY            N/A     59  43  55 CALM      30.02R
PLAINS           N/A     58  46  64 CALM      30.01S
RONAN            N/A     59  50  72 NE1       30.06F
THOMPSON FALLS   N/A     62  46  55 CALM      30.04S
$$

MTZ008-052>055-071000-
SOUTHWEST MONTANA

CITY           SKY/WX    TMP DP  RH WIND       PRES   REMARKS
BOZEMAN        PTCLDY    58  49  72 W6        30.13R
DILLON         CLEAR     57  48  72 S5        30.15S
W YELLOWSTONE  CLOUDY    54  52  94 CALM      30.24R
THREE FORKS      N/A     54  54 100 CALM      30.10S
$$

MTZ009-010-012-014-046-048-049-054-071000-
EAST SLOPES AND CENTRAL MONTANA

CITY           SKY/WX    TMP DP  RH WIND       PRES   REMARKS
CUT BANK       PTCLDY    54  47  77 SE6       30.07F
GREAT FALLS    PTCLDY    55  50  83 CALM      30.07F
MALMSTROM AFB  MOCLDY    52  51  95 S5        30.07F
HELENA         CLEAR     58  49  72 W6        30.09S
CONRAD           N/A     50  50 100 E3        30.09S
$$

MTZ011-013-016-021-045-047-050-051-071000-
NORTH CENTRAL MONTANA

CITY           SKY/WX    TMP DP  RH WIND       PRES   REMARKS
HAVRE          CLEAR     57  50  77 E6        30.04S
LEWISTOWN      CLEAR     50  44  80 SE5       30.10S
CHINOOK          N/A     55  48  76 E5        30.05S
FORT BENTON      N/A     54  50  87 CALM      30.06S
$$

MTZ017>020-022>027-061-062-071000-
NORTHEAST MONTANA

CITY           SKY/WX    TMP DP  RH WIND       PRES   REMARKS
GLASGOW        CLEAR     54  47  77 E12       30.09S
JORDAN           N/A     56  46  69 E5        30.09F
SIDNEY         PTCLDY    55  50  82 CALM      30.15F
WOLF POINT     MOCLDY    56  50  80 NE6       30.12S HAZE
MALTA            N/A     57  44  62 CALM      30.03S
PLENTYWOOD       N/A     50  45  81 E6        30.14S
POPLAR           N/A     59  54  82 SE6       30.13S
SCOBEY           N/A     53  43  69 SE3       30.11S
$$

MTZ028>42-056>058-071000-
SOUTHCENTRAL AND SOUTHEAST MONTANA

CITY           SKY/WX    TMP DP  RH WIND       PRES   REMARKS
BAKER          CLEAR     53  51  93 SE10      30.17F FOG
BILLINGS       CLEAR     58  51  78 SW3       30.11S
LIVINGSTON     PTCLDY    54  48  80 CALM      30.14S
MILES CITY     CLEAR     56  49  77 S5        30.11S
EKALAKA          N/A     54  46  74 SE7       30.13F
FORSYTH          N/A     57  52  82 SE7       30.09S
LAUREL           N/A     57  49  75 CALM      30.08S
ROUNDUP          N/A     52  42  68 CALM      30.01S
$$

REGIONAL REPORTS...DAKOTAS

CITY           SKY/WX    TMP DP  RH WIND       PRES   REMARKS
WILLISTON      CLEAR     55  50  83 CALM      30.16S
MINOT          CLEAR     50  44  80 SW6       30.17S
DICKINSON      PTCLDY    50  47  89 SE8       30.17F FOG
BEACH          CLOUDY    50  50 100 SE7       30.18S FOG
CROSBY         FAIR      48  48 100 S8        30.16S
BISMARCK       CLEAR     46  45  96 CALM      30.20S FOG
GRAND FORKS    CLEAR     44  42  93 CALM      30.17R
FARGO          CLEAR     46  42  86 CALM      30.18S
BUFFALO SD       N/A     54  50  86 E7        30.12F
RAPID CITY     PTCLDY    58  55  90 SE6       30.18F
$$

REGIONAL REPORTS...WYOMING/IDAHO/WASHINGTON

CITY           SKY/WX    TMP DP  RH WIND       PRES   REMARKS
GILLETTE       CLEAR     53  51  93 S12       30.16F
SHERIDAN       CLEAR     50  48  93 CALM      30.12F
BUFFALO WY     CLEAR     52  48  86 S6        30.16F
CODY           PTCLDY    57  50  77 SW5       30.16S
YELLOWSTONE LA   N/A     49  47  93 CALM      30.33F
IDAHO FALLS    MOCLDY    57  53  86 NW7       30.11F
SALMON         CLEAR     59  46  63 CALM      30.09S
BOISE          CLOUDY    77  48  35 SE6       29.96R
SPOKANE        MOCLDY    75  44  33 E7        29.93S
$$

REGIONAL REPORTS...ALBERTA

CITY           SKY/WX    TMP DP  RH WIND       PRES   REMARKS
EDMONTON       PTCLDY    52  43  71 N5        30.12R
CALGARY        MOCLDY    59  50  72 VRB3      30.14S
LETHBRIDGE     CLOUDY    57  52  82 W9        30.12R
MEDICINE HAT   CLOUDY    61  46  59 NW8       30.08R
WATERTON GATE    N/A     57  46  67 NW1         N/A
CARDSTON         N/A     55  52  88 NW13G21     N/A
MILK RIVER       N/A     54  50  87 NW6         N/A
ONEFOUR          N/A     54  48  82 NE12        N/A
$$

REGIONAL REPORTS...SASKATCHEWAN

CITY           SKY/WX    TMP DP  RH WIND       PRES   REMARKS
SWIFT CURRENT  MOCLDY    52  46  82 S12       30.07F
REGINA         MOCLDY    50  43  76 S7        30.10F
SASKATOON      PTCLDY    54  46  76 S8        30.03F
CYPRESS HILLS    N/A     52  41  66 SE5         N/A
VAL MARIE        N/A     48  45  87 N2          N/A
ROCKGLEN         N/A     50  46  87 SE9         N/A
$$


USA.gov is the U.S. government's official web portal to all federal, state and local government web resources and services.